Flag for U.S.A. Weather past 2 weeks in Galveston, Texas, U.S.A.

Now
36 °F

Sunny.


Feels Like: 24 °F
Forecast: 39 / 52 °F
Wind: 25 mph from Northeast

Location: Scholes Field

Current Time: Mar 6, 2015 at 7:13:37 AM

Latest Report: Mar 6, 2015 at 6:52 AM


Visibility: 10 mi

Pressure: 30.55 "Hg

Humidity: 62%

Dew point: 24 °F

Location of GalvestonLocation

Historic Weather in Galveston — Graph

°F

Galveston temperature yesterday

Maximum temperature yesterday: 50 °F (at 12:52 AM)
Minimum temperature yesterday: 40 °F (at 11:52 AM)
Average temperature yesterday: 44 °F

Past Weeks' High & Low Weather Summary

 TemperatureHumidityPressure
High73 °F (Mar 4, 11:52 AM)100% (Feb 19, 5:52 AM)30.55 "Hg (Feb 19, 5:52 AM)
Low36 °F (Mar 6, 5:52 AM)51% (Mar 5, 7:52 PM)29.82 "Hg (Feb 25, 2:52 PM)
Average53 °F87%30.14 "Hg
* Reported Feb 19 5:52 AM — Mar 6 5:52 AM, Galveston, Weather by CustomWeather, © 2015

Note: Actual official high and low records may vary slightly from our data, if they occured in-between our weather recording intervals... More about our weather records

Advertising

Galveston weather history for previous 24 hours

 ConditionsComfort  
Time TempWeatherWind HumidityBarometerVisibility
5:52 AM
Fri, Mar 6
36 °FClear.24 mph62%30.55 "Hg10 mi
4:52 AM37 °FClear.22 mph60%30.54 "Hg10 mi
3:52 AM37 °FClear.22 mph60%30.53 "Hg10 mi
2:52 AM38 °FClear.17 mph60%30.54 "Hg10 mi
1:52 AM38 °FClear.20 mph60%30.54 "Hg10 mi
12:52 AM39 °FLight rain. Clear.22 mph60%30.55 "Hg10 mi
11:52 PM
Thu, Mar 5
40 °FClear.23 mph55%30.55 "Hg10 mi
10:52 PM42 °FClear.25 mph55%30.54 "Hg10 mi
9:52 PM43 °FClear.21 mph51%30.54 "Hg10 mi
8:52 PM44 °FClear.22 mph55%30.53 "Hg10 mi
7:52 PM46 °FClear.22 mph51%30.49 "Hg10 mi
6:52 PM47 °FClear.22 mph52%30.46 "Hg10 mi
5:52 PM48 °FSunny.21 mph59%30.43 "Hg10 mi
4:52 PM47 °FSunny.22 mph61%30.41 "Hg10 mi
3:52 PM47 °FSunny.26 mph64%30.40 "Hg10 mi
2:52 PM46 °FScattered clouds.24 mph66%30.40 "Hg10 mi
1:52 PM42 °FMostly cloudy.30 mph76%30.40 "Hg10 mi
12:52 PM40 °FOvercast.28 mph86%30.41 "Hg10 mi
11:52 AM40 °FOvercast.30 mph86%30.40 "Hg10 mi
10:52 AM42 °FMostly cloudy.29 mph85%30.39 "Hg10 mi
9:52 AM42 °FOvercast.28 mph85%30.36 "Hg10 mi
8:52 AM42 °FLight rain. Mostly cloudy.32 mph89%30.33 "Hg10 mi
7:52 AM42 °FLight rain. Overcast.31 mph92%30.28 "Hg8 mi
Weather by CustomWeather, © 2015

See weather overviewHow to use our weather pages